Location: Newark
(39.5667°N, 8.9833°E)
Time: 19:51:06
(UTC+00:00)

Transit 2A - Pass Details

Date: 29 October 2019
Orbit: 601 x 957 km, 66.7° (Epoch: 21 November)

Event Time Altitude Azimuth Distance (km) Brightness Sun altitude
Rises 02:16:00 0° 322° (NW) 2,862 - -41.1°
Reaches altitude 10° 02:18:22 10° 314° (NW) 1,949 - -40.7°
Maximum altitude 02:22:21 36° 247° (WSW) 957 - -40.0°
Drops below altitude 10° 02:26:24 10° 181° (S) 1,984 - -39.2°
Sets 02:28:50 0° 172° (S) 2,922 - -38.8°
